Date String (YYYY-MM-DD hh:mm:ss) UTC,Instrument flags,Ambient pressure (hPa),Sample flow (lpm),Bypass flow (lpm),Sample temperature (°C),Ambient temperature (°C),ASC tube jacket temperature (°C),LED temperature (°C),Box temperature (°C),Sample RH (%),Span deviation,Mass concentration (μg/m³),Mass concentration (μg/m³),Mass concentration (μg/m³)
DateTimeUTC,F1_M11,P_M11,Q1_M11,Q2_M11,T1_M11,T2_M11,T3_M11,T4_M11,T5_M11,U1_M11,ZSPAN_M11,X0_M11,X2_M11,X1_M11
2021-09-05 11:00:00,,0830.4,5.00,0.00,30.2,29.0,00.0,39.3,31.8,09.2,0002.4,0015.15,0010.65,0010.22
2021-09-05 11:01:00,,0830.4,5.00,0.00,30.2,29.0,00.0,39.3,31.8,09.7,0002.2,0015.09,0010.64,0010.21
2021-09-05 11:02:00,,0830.4,5.02,0.00,30.2,29.0,00.0,39.3,31.8,09.9,0001.8,0015.17,0010.67,0010.23
2021-09-05 11:03:00,,0830.4,5.00,0.00,30.2,29.1,00.0,39.3,31.9,10.0,0001.8,0015.17,0010.68,0010.24
2021-09-05 11:04:00,,0830.4,5.00,0.00,30.2,29.1,00.0,39.4,31.9,10.0,0002.2,0014.99,0010.66,0010.25
2021-09-05 11:05:00,,0830.4,4.99,0.00,30.2,29.1,00.0,39.3,31.9,09.8,0002.6,0014.76,0010.66,0010.26
2021-09-05 11:06:00,,0830.3,5.01,0.00,30.2,29.1,00.0,39.3,31.9,10.0,0002.4,0015.22,0010.70,0010.32
2021-09-05 11:07:00,,0830.4,4.99,0.00,30.2,29.1,00.0,39.3,31.9,10.1,0002.0,0016.16,0010.79,0010.39
2021-09-05 11:08:00,,0830.4,5.00,0.00,30.2,29.1,00.0,39.3,31.8,10.0,0001.7,0016.17,0010.91,0010.48
2021-09-05 11:09:00,,0830.4,5.00,0.00,30.2,29.1,00.0,39.4,31.9,10.1,0001.7,0015.98,0011.00,0010.55
2021-09-05 11:10:00,,0830.3,5.01,0.00,30.2,29.1,00.0,39.4,31.9,10.2,0001.6,0015.75,0011.08,0010.64
2021-09-05 11:11:00,,0830.3,5.01,0.00,30.2,29.1,00.0,39.4,31.9,10.2,0001.6,0015.78,0011.18,0010.72
2021-09-05 11:12:00,,0830.4,5.00,0.00,30.2,29.1,00.0,39.4,31.9,10.2,0001.5,0016.50,0011.31,0010.82
2021-09-05 11:13:00,,0830.4,4.99,0.00,30.2,29.1,00.0,39.4,31.9,10.0,0001.6,0016.57,0011.36,0010.87
2021-09-05 11:14:00,,0830.4,5.00,0.00,30.2,29.1,00.0,39.4,31.9,09.9,0001.8,0016.82,0011.43,0010.92
2021-09-05 11:15:00,,0830.4,5.00,0.00,30.2,29.1,00.0,39.4,31.9,09.9,0001.7,0017.37,0011.50,0010.97
2021-09-05 11:16:00,,0830.5,5.01,0.00,30.2,29.1,00.0,39.4,31.9,10.0,0001.4,0017.46,0011.56,0011.03
2021-09-05 11:17:00,,0830.4,5.02,0.00,30.2,29.2,00.0,39.4,31.9,10.0,0001.4,0017.34,0011.62,0011.08
2021-09-05 11:18:00,,0830.4,5.00,0.00,30.2,29.2,00.0,39.4,31.9,10.0,0001.7,0016.29,0011.64,0011.10
2021-09-05 11:19:00,,0830.4,4.99,0.00,30.2,29.1,00.0,39.4,31.9,10.0,0002.0,0016.29,0011.64,0011.11
2021-09-05 11:20:00,,0830.4,5.01,0.00,30.2,29.2,00.0,39.4,31.9,09.9,0001.8,0016.32,0011.65,0011.12
2021-09-05 11:21:00,,0830.3,4.99,0.00,30.2,29.2,00.0,39.4,31.9,09.7,0001.9,0016.38,0011.66,0011.13
2021-09-05 11:22:00,,0830.4,5.00,0.00,30.2,29.2,00.0,39.4,31.9,09.7,0001.8,0016.33,0011.63,0011.10
2021-09-05 11:23:00,,0830.4,5.00,0.00,30.2,29.2,00.0,39.4,31.9,09.8,0002.0,0015.75,0011.58,0011.07
2021-09-05 11:24:00,,0830.4,5.01,0.00,30.2,29.2,00.0,39.4,31.9,09.9,0002.0,0015.69,0011.57,0011.09
2021-09-05 11:25:00,,0830.5,5.00,0.00,30.2,29.1,00.0,39.4,31.9,09.9,0001.9,0015.51,0011.56,0011.08
2021-09-05 11:26:00,,0830.4,4.98,0.00,30.2,29.1,00.0,39.4,31.9,09.5,0001.9,0015.57,0011.56,0011.07
2021-09-05 11:27:00,,0830.4,5.01,0.00,30.2,29.1,00.0,39.4,31.8,09.3,0001.8,0016.29,0011.53,0011.03
2021-09-05 11:28:00,,0830.4,5.01,0.00,30.2,29.1,00.0,39.4,31.8,09.4,0001.9,0016.25,0011.47,0010.97
2021-09-05 11:29:00,,0830.4,5.00,0.00,30.2,29.2,00.0,39.4,31.9,09.2,0001.6,0016.12,0011.38,0010.90
2021-09-05 11:30:00,,0830.4,5.00,0.00,30.2,29.1,00.0,39.4,31.9,09.0,0001.4,0015.94,0011.29,0010.83
2021-09-05 11:31:00,,0830.4,5.00,0.00,30.2,29.1,00.0,39.4,31.8,08.9,0001.7,0015.82,0011.23,0010.76
2021-09-05 11:32:00,,0830.4,5.00,0.00,30.2,29.1,00.0,39.4,31.8,08.8,0002.0,0016.02,0011.21,0010.75
2021-09-05 11:33:00,,0830.4,5.01,0.00,30.2,29.1,00.0,39.4,31.9,08.8,0002.3,0016.24,0011.22,0010.74
2021-09-05 11:34:00,,0830.4,5.00,0.00,30.2,29.2,00.0,39.4,31.9,08.8,0002.0,0016.18,0011.18,0010.70
2021-09-05 11:35:00,,0830.4,4.98,0.00,30.2,29.2,00.0,39.4,31.9,08.9,0002.0,0016.26,0011.18,0010.67
2021-09-05 11:36:00,,0830.4,5.00,0.00,30.2,29.1,00.0,39.4,31.9,09.0,0002.2,0016.31,0011.16,0010.64
2021-09-05 11:37:00,,0830.4,5.01,0.00,30.2,29.1,00.0,39.4,31.9,08.8,0002.3,0015.80,0011.13,0010.62
2021-09-05 11:38:00,,0830.4,5.01,0.00,30.2,29.2,00.0,39.4,31.9,08.7,0002.6,0015.05,0011.10,0010.59
2021-09-05 11:39:00,,0830.4,5.00,0.00,30.2,29.2,00.0,39.4,31.9,08.8,0002.3,0015.12,0011.10,0010.57
2021-09-05 11:40:00,,0830.4,4.99,0.00,30.2,29.2,00.0,39.4,31.9,08.9,0002.2,0015.14,0011.10,0010.56
2021-09-05 11:41:00,,0830.4,5.01,0.00,30.2,29.2,00.0,39.4,31.9,08.8,0002.3,0015.05,0011.05,0010.54
2021-09-05 11:42:00,,0830.4,4.98,0.00,30.2,29.2,00.0,39.4,31.9,08.7,0002.1,0015.03,0011.01,0010.52
2021-09-05 11:43:00,,0830.4,5.00,0.00,30.2,29.2,00.0,39.4,31.9,08.6,0001.6,0014.86,0010.95,0010.47
2021-09-05 11:44:00,,0830.4,5.01,0.00,30.2,29.1,00.0,39.4,31.9,08.7,0001.5,0014.72,0010.93,0010.45
2021-09-05 11:45:00,,0830.4,5.00,0.00,30.2,29.1,00.0,39.4,31.9,08.8,0001.4,0014.76,0010.93,0010.46
2021-09-05 11:46:00,,0830.4,5.01,0.00,30.2,29.1,00.0,39.4,31.9,08.8,0001.4,0014.74,0010.90,0010.45
2021-09-05 11:47:00,,0830.4,5.00,0.00,30.2,29.1,00.0,39.4,31.9,08.9,0001.3,0014.69,0010.89,0010.47
2021-09-05 11:48:00,,0830.4,5.00,0.00,30.2,29.1,00.0,39.4,31.9,08.9,0001.2,0014.59,0010.85,0010.45
2021-09-05 11:49:00,,0830.4,4.99,0.00,30.2,29.1,00.0,39.4,31.9,09.0,0001.1,0014.62,0010.85,0010.46
2021-09-05 11:50:00,,0830.4,5.00,0.00,30.2,29.1,00.0,39.4,31.9,08.9,0001.6,0014.56,0010.86,0010.48
2021-09-05 11:51:00,,0830.4,5.00,0.00,30.2,29.1,00.0,39.4,31.9,09.0,0001.9,0014.55,0010.87,0010.51
2021-09-05 11:52:00,,0830.4,5.00,0.00,30.2,29.1,00.0,39.4,31.9,08.9,0002.0,0014.84,0010.97,0010.56
2021-09-05 11:53:00,,0830.4,5.00,0.00,30.2,29.2,00.0,39.4,31.9,09.0,0002.3,0015.43,0011.00,0010.60
2021-09-05 11:54:00,,0830.5,5.00,0.00,30.2,29.1,00.0,39.4,31.9,09.1,0002.2,0015.37,0011.07,0010.66
2021-09-05 11:55:00,,0830.5,5.00,0.00,30.2,29.1,00.0,39.4,31.9,09.1,0002.0,0015.43,0011.08,0010.66
2021-09-05 11:56:00,,0830.4,4.99,0.00,30.2,29.2,00.0,39.4,31.9,09.1,0002.2,0015.45,0011.05,0010.64
2021-09-05 11:57:00,,0830.4,5.00,0.00,30.2,29.2,00.0,39.4,31.9,09.2,0002.5,0015.39,0011.06,0010.62
2021-09-05 11:58:00,,0830.5,5.01,0.00,30.2,29.2,00.0,39.4,31.9,09.0,0002.7,0015.36,0011.06,0010.61
2021-09-05 11:59:00,,0830.4,5.00,0.00,30.2,29.2,00.0,39.4,31.9,08.9,0003.0,0015.89,0011.11,0010.64
